Regional Weather Roundup
Issued by NWS Goodland, KS

Home | Current Version | Previous Version | Text Only | Print | Product List | Glossary Off
Versions: 1 2 3 4 5 6 7 8 9 10 11 12 13 14 15 16 17 18 19 20 21 22 23 24 25 26 27 28 29 30 31 32 33 34 35 36 37 38 39 40 41 42 43 44 45 46 47 48 49 50

000
ASUS43 KGLD 210308
RWRGLD

GOODLAND FORECAST AREA HOURLY WEATHER ROUNDUP
NATIONAL WEATHER SERVICE GOODLAND KS
800 PM MST MON NOV 20 2017

...OFFICIAL OBSERVATIONS...

CITY           SKY/WX    TMP DP  RH WIND       PRES   REMARKS
GOODLAND KS    CLOUDY    44  18  35 CALM      29.80S
HILL CITY KS   CLOUDY    52  21  29 SW5       29.75S
IMPERIAL NEB   CLOUDY    53  19  26 N12       29.78S
MCCOOK NEB     CLOUDY    49  24  37 NW6       29.76R
AKRON CO       CLOUDY    49  15  25 N13       29.82R
BURLINGTON CO  CLOUDY    47  13  25 NE10      29.83R
LIMON CO       CLOUDY    34  14  43 NW6       29.88R
$$

...UNOFFICIAL OBSERVATIONS...

CITY           SKY/WX    TMP DP  RH WIND       PRES   REMARKS
COLBY KS       CLOUDY    50  27  40 NW6       29.80S
LENORA KS        N/A     55  32  41 NW6         N/A
NORTON KS      CLEAR     54  16  22 W9        29.73
SHARON SPRINGS   N/A     45  16  30 N5          N/A
TRENTON NEB      N/A     53  32  45 NW7         N/A
YUMA CO        FAIR      46  19  34 N7        29.80S
$$




USA.gov is the U.S. government's official web portal to all federal, state and local government web resources and services.